Voltar ao catálogo

USA 139

AtivoMilitarGEO
NORAD 25336·PAYLOAD·🇺🇸 United States

Lançado May 9, 1998 de Cape Canaveral Space Force Station

Loading…

TLE

AtualizadoSource: Mike McCants

Época: Sep 15, 2026, 01:44 UTC

1 25336U 98029A   26258.07284612  .00000000  00000-0  00000-0 0    03
2 25336   7.2988 353.9998 0037321 323.8537  35.8972  1.00270000  5300

Acompanhe USA 139 em tempo real com AllMySat

Download on the App Store